Regional Weather Roundup
Issued by NWS

Home | Current Version | Previous Version | Graphics & Text | Print | Product List | Glossary On
Versions: 1 2 3 4 5 6 7 8 9 10 11 12 13 14 15 16 17 18 19 20 21 22 23 24 25 26 27 28 29 30 31 32 33 34 35 36 37 38 39 40 41 42 43 44 45 46 47 48 49 50
347
ASUS43 KOAX 261002
RWRNE

WEATHER ROUNDUP FOR NEBRASKA
NATIONAL WEATHER SERVICE OMAHA NE
500 AM CDT WED APR 26 2017

NOTES: SATELLITE DATA IS BEING USED TO AUGMENT CLOUD COVER ABOVE
       12000 FEET.
       "FAIR" INDICATES FEW OR NO CLOUDS BELOW 12,000 FEET WITH NO
       SIGNIFICANT WEATHER AND/OR OBSTRUCTIONS TO VISIBILITY.

  * THESE STATIONS DO NOT REPORT WEATHER SUCH AS RAIN...SNOW OR FOG.

NEZ001>004-019>022-054>056-261100-
NEBRASKA PANHANDLE

CITY           SKY/WX    TMP DP  RH WIND       PRES   REMARKS
SCOTTSBLUFF    CLOUDY    33  25  72 NW13      29.84S WCI  24
ALLIANCE       CLOUDY    28  24  85 NW13      29.81S WCI  17
CHADRON        CLOUDY    29  26  89 N5        29.86S WCI  24
KIMBALL        CLOUDY    32  31  96 NW14      29.81R WCI  22
SIDNEY         CLOUDY    31  27  85 N16G22    29.80S WCI  20
$$

NEZ057>060-069>072-079>082-261100-
SOUTHWEST NEBRASKA

CITY           SKY/WX    TMP DP  RH WIND       PRES   REMARKS
NORTH PLATTE   CLOUDY    32  25  75 NW17      29.79R WCI  21
IMPERIAL       PTCLDY    31  24  75 N18       29.79S WCI  19
LEXINGTON      CLOUDY    33  28  81 N17G26    29.77R WCI  22
MCCOOK         CLOUDY    34  26  72 N13       29.80R WCI  25
OGALLALA       CLOUDY    32  26  78 NW10G18   29.81S WCI  24
$$

NEZ005>010-023>029-035>040-094-261100-
NORTH CENTRAL NEBRASKA

CITY           SKY/WX    TMP DP  RH WIND       PRES   REMARKS
VALENTINE      CLOUDY    31  25  78 NW17      29.78F WCI  19
AINSWORTH      CLOUDY    30  28  92 NW16G29   29.76S WCI  19
BROKEN BOW     CLOUDY    32  25  75 N25G32    29.75R WCI  19
O`NEILL        CLOUDY    32  29  90 NW20G28   29.73S WCI  20
ORD            CLOUDY    33  27  78 NW23G31   29.73R WCI  21
THEDFORD       CLOUDY    31  26  81 N16G26    29.78R WCI  20
$$

NEZ041-046>049-061>064-073>077-083>087-261100-
SOUTH CENTRAL NEBRASKA

CITY           SKY/WX    TMP DP  RH WIND       PRES   REMARKS
GRAND ISLAND   CLOUDY    34  31  88 NW21G26   29.73R WCI  22
AURORA         CLOUDY    35  32  90 N25       29.72R WCI  22
HASTINGS       CLOUDY    35  30  82 N20       29.73S WCI  24
HEBRON         CLOUDY    38  32  79 N18G26    29.68F WCI  29
HOLDREGE       CLOUDY    34  28  80 N21       29.75S WCI  22
KEARNEY *      CLOUDY    34  28  80 N16G25    29.75R WCI  23
YORK           CLOUDY    36  32  87 NW16G26   29.70R WCI  26
$$

NEZ011>018-030>034-042>045-261100-
NORTHEAST NEBRASKA

CITY           SKY/WX    TMP DP  RH WIND       PRES   REMARKS
NORFOLK        CLOUDY    33  29  85 NW23      29.67R WCI  21
ALBION         CLOUDY    35  31  87 NW20G29   29.70R WCI  24
BLAIR          DRIZZLE   36  34  94 NW18G30   29.61F WCI  26
FREMONT        CLOUDY    36  34  92 NW20G28   29.65S WCI  25
TEKAMAH        CLOUDY    37  34  89 NW21      29.64R WCI  26
WAYNE          CLOUDY    34  33  98 NW17G30   29.66R WCI  23
$$

NEZ050>053-065>068-078-088>093-261100-
SOUTHEAST NEBRASKA

CITY           SKY/WX    TMP DP  RH WIND       PRES   REMARKS
LINCOLN        CLOUDY    38  32  79 NW23G30   29.68R WCI  27
OMAHA EPPLEY   DRIZZLE   38  34  85 NW15G25   29.62R FOG     WCI  29
BEATRICE       CLOUDY    38  34  85 NW24      29.65F WCI  27
FALLS CITY     CLOUDY    40  36  86 NW16G28   29.58R WCI  31
NEBRASKA CITY  CLOUDY    38  34  86 NW20      29.61R WCI  28
PLATTSMOUTH    CLOUDY    37  35  90 NW15G22   29.61R FOG     WCI  28
$$

NEZ044-045-051>053-067-261100-
OMAHA AREA

CITY           SKY/WX    TMP DP  RH WIND       PRES   REMARKS
OMAHA EPPLEY   DRIZZLE   38  34  85 NW15G25   29.62R FOG     WCI  29
BLAIR          DRIZZLE   36  34  94 NW18G30   29.61F WCI  26
FREMONT        CLOUDY    36  34  92 NW20G28   29.65S WCI  25
MILLARD        CLOUDY    39  37  91 NW17G24   29.63S FOG     WCI  30
OFFUTT AFB     CLOUDY    37  36  93 NW16G23   29.61R WCI  28
PLATTSMOUTH    CLOUDY    37  35  90 NW15G22   29.61R FOG     WCI  28
WAHOO          CLOUDY    37  32  84 NW16G24   29.66R WCI  27
$$




USA.gov is the U.S. government's official web portal to all federal, state and local government web resources and services.